Home > Time Zones > World Clock > Weather > Chile > Arica > Past weeks

Flag for Chile Weather past 2 weeks in Arica, Chile

Now
68 °F

Sunny.


Feels Like: 68 °F
Forecast: 66 / 74 °F
Wind: 6 mph from South

Location: Arica Airport

Current Time: Dec 25, 2014 at 10:06:48 PM

Latest Report: Dec 25, 2014 at 9:00 PM


Visibility: 10 mi

Pressure: 29.95 "Hg

Humidity: 73%

Dew point: 59 °F

Location of AricaLocation

Historic Weather in Arica — Graph

°F

Arica temperature yesterday

Maximum temperature yesterday: 73 °F (at 3:00 PM)
Minimum temperature yesterday: 64 °F (at 1:00 AM)
Average temperature yesterday: 68 °F

Past Weeks' High & Low Weather Summary

 TemperatureHumidityPressure
High75 °F (Dec 12, 1:00 PM)83% (Dec 15, 9:00 PM)30.07 "Hg (Dec 15, 9:00 PM)
Low63 °F (Dec 17, 2:00 AM)47% (Dec 18, 2:00 PM)29.83 "Hg (Dec 24, 5:00 PM)
Average69 °F65%29.95 "Hg
* Reported Dec 10 9:00 PM — Dec 25 9:00 PM, Arica, Weather by CustomWeather, © 2014

Note: Actual official high and low records may vary slightly from our data, if they occured in-between our weather recording intervals... More about our weather records

Advertising

Arica weather history for previous 24 hours

 ConditionsComfort  
Time TempWeatherWind HumidityBarometerVisibility
9:00 PM
Dec 25
68 °FSunny.6 mph73%29.95 "Hg10 mi
8:00 PM70 °FSunny.7 mph64%29.92 "Hg10 mi
7:00 PM72 °FSunny.7 mph61%29.86 "Hg10 mi
6:00 PM72 °FSunny.8 mph61%29.86 "Hg10 mi
5:00 PM72 °FSunny.13 mph57%29.86 "Hg10 mi
4:00 PM73 °FSunny.14 mph53%29.86 "Hg10 mi
3:00 PM73 °FSunny.16 mph53%29.86 "Hg10 mi
2:00 PM73 °FSunny.15 mph50%29.86 "Hg10 mi
1:00 PM73 °FSunny.12 mph53%29.89 "Hg10 mi
12:00 PM72 °FPartly sunny.9 mph57%29.89 "HgN/A
11:00 AM70 °FOvercast.5 mph60%29.92 "HgN/A
10:00 AM70 °FOvercast.3 mph60%29.92 "HgN/A
9:00 AM70 °FOvercast.No wind60%29.89 "HgN/A
8:00 AM68 °FOvercast.2 mph64%29.89 "HgN/A
7:00 AM70 °FOvercast.2 mph60%29.86 "HgN/A
6:00 AM70 °FOvercast.5 mph60%29.86 "HgN/A
5:00 AM68 °FOvercast.6 mph60%29.86 "HgN/A
4:00 AM68 °FPassing clouds.6 mph60%29.89 "HgN/A
3:00 AM68 °FPassing clouds.8 mph69%29.89 "HgN/A
2:00 AM68 °FPassing clouds.6 mph64%29.92 "HgN/A
12:00 AM68 °FPassing clouds.1 mph64%29.95 "HgN/A
11:00 PM
Dec 24
68 °FClear.1 mph69%29.92 "Hg10 mi
10:00 PM68 °FClear.3 mph69%29.92 "Hg10 mi
Weather by CustomWeather, © 2014

See weather overviewHow to use our weather pages